www.pogodaiklimat.ru

Погода и климат >> Архив погоды >> Французская Гвиана >> Saint-Laurent-du-Maroni


ПОГОДА в Saint-Laurent-du-Maroni

  • Прогноз погоды в Saint-Laurent-du-Maroni
  • Монитор погоды в Saint-Laurent-du-Maroni
  • Климат города

АРХИВ ПОГОДЫ в Saint-Laurent-du-Maroni

Время (UTC), дата Ветер
(напр.,м/с)
 
Видим.   Явления Облачность Т
(С)
Тd
(С)
f
(%)
Тe
(С)
Тes
(С)
Комфортность P
(гПа)
Po
(гПа)
Тmin
(С)
Tmax
(С)
R
(мм)
R24
(мм)
S
(см)
12 11.10 ЮВ 3 н/о н/о +29.1 +24.0 74 +40 +40 очень
душно
1012.0 1011.4 +22.8 +35.9
15 11.10 В 4 н/о н/о +34.4 +22.1 49 +43 +43 опасность
перегрева
1011.5 1010.9 +22.8 +35.9
18 11.10 СВ 2 н/о н/о +33.3 +23.0 55 +44 +44 опасность
перегрева
1008.5 1007.9 +22.8 +35.6
21 11.10 СВ 3 н/о н/о +29.9 +22.3 64 +39 +39 очень
душно
1008.9 1008.3 +22.8 +35.6
00 12.10 В 1 н/о н/о +25.7 +23.4 87 +35 +35 очень
душно
1010.9 1010.3 +22.8 +35.6
03 12.10 ЮВ 1 н/о н/о +24.6 +23.0 91 +33 +33 очень
душно
1011.8 1011.2 +22.8 +35.6
06 12.10 ЮВ 1 н/о н/о +23.4 +22.7 96 +33 +33 очень
душно
1010.8 1010.2 +22.8 +35.6
09 12.10 Ю 1 н/о н/о +22.5 +21.8 96 +30 +30 очень
душно
1011.4 1010.8 +22.5 +35.6 0.2
12 12.10 ЮВ 3 н/о н/о +28.2 +24.0 78 +39 +39 очень
душно
1013.8 1013.2 +22.2 +35.6
15 12.10 В 3 н/о н/о +33.5 +22.0 51 +42 +42 опасность
перегрева
1013.2 1012.6 +22.2 +35.6
18 12.10 СВ 2 н/о н/о +33.3 +23.6 57 +44 +44 опасность
перегрева
1010.4 1009.8 +22.2 +35.3
21 12.10 СВ 3 н/о н/о +29.4 +22.1 65 +38 +38 очень
душно
1010.7 1010.1 +22.2 +35.3
00 13.10 СВ 1 н/о н/о +25.2 +23.1 88 +34 +34 очень
душно
1012.3 1011.7 +22.2 +35.3
03 13.10 штиль 0 н/о н/о +23.6 +22.8 95 +31 +31 очень
душно
1012.7 1012.1 +22.2 +35.3
06 13.10 ЮВ 2 н/о н/о +23.2 +22.7 97 +32 +32 очень
душно
1011.6 1011.0 +22.2 +35.3
09 13.10 ЮВ 1 н/о н/о +22.9 +22.4 97 +31 +31 очень
душно
1012.6 1012.0 +22.2 +35.3
12 13.10 ЮВ 3 н/о н/о +29.1 +24.9 78 +42 +42 опасность
перегрева
1014.3 1013.7 +22.8 +35.3 0.2
15 13.10 В 3 н/о н/о +33.3 +23.3 56 +44 +44 опасность
перегрева
1013.3 1012.7 +22.8 +35.3
18 13.10 СВ 2 н/о н/о +30.3 +24.5 71 +43 +43 опасность
перегрева
1010.5 1009.9 +22.8 +34.7 0.2
21 13.10 СВ 2 н/о н/о +28.5 +24.1 77 +40 +40 очень
душно
1010.6 1010.0 +22.8 +34.7
00 14.10 СВ 1 н/о н/о +25.1 +23.9 93 +34 +34 очень
душно
1012.5 1011.9 +22.8 +34.7
03 14.10 штиль 0 н/о н/о +24.1 +23.4 96 +32 +32 очень
душно
1012.8 1012.2 +22.8 +34.7
06 14.10 ЮВ 1 н/о н/о +23.6 +23.1 97 +31 +31 очень
душно
1011.8 1011.2 +22.8 +34.7
09 14.10 Ю 1 н/о н/о +23.0 +22.7 98 +32 +32 очень
душно
1012.0 1011.4 +22.8 +34.7 0.2
12 14.10 Ю 2 н/о н/о +26.4 +25.4 94 +38 +38 очень
душно
1013.5 1012.9 +22.9 +34.7
15 14.10 СЗ 2 н/о н/о +33.2 +23.8 58 +45 +45 опасность
перегрева
1013.2 1012.6 +22.9 +34.7
18 14.10 СВ 2 н/о н/о +29.9 +21.6 61 +38 +38 очень
душно
1010.7 1010.1 +22.9 +34.7
21 14.10 СВ 2 н/о н/о +29.5 +23.2 69 +40 +40 очень
душно
1011.1 1010.5 +22.9 +34.7
00 15.10 СВ 1 н/о н/о +25.4 +24.0 92 +35 +35 очень
душно
1012.7 1012.1 +22.9 +34.7
03 15.10 ЮВ 1 н/о н/о +24.5 +23.8 96 +33 +33 очень
душно
1011.6 1011.0 +22.9 +34.7
06 15.10 ЮВ 1 н/о н/о +23.9 +23.4 97 +32 +32 очень
душно
1010.2 1009.6 +22.9 +34.7
09 15.10 Ю 1 н/о н/о +24.2 +23.9 98 +33 +33 очень
душно
1010.9 1010.3 +23.0 +34.7 0.2
12 15.10 СВ 1 н/о н/о +29.1 +24.4 76 +41 +41 опасность
перегрева
1012.1 1011.5 +23.5 +34.7
15 15.10 СВ 2 н/о н/о +34.3 +23.7 54 +45 +45 опасность
перегрева
1011.9 1011.3 +23.5 +34.7
18 15.10 СВ 3 н/о н/о +31.7 +25.1 68 +45 +45 опасность
перегрева
1009.5 1008.9 +23.5 +34.7 0.2
21 15.10 СВ 1 н/о н/о +27.6 +23.2 77 +37 +37 очень
душно
1008.7 1008.1 +23.5 +34.7 0.2
00 16.10 штиль 0 н/о н/о +24.7 +23.5 93 +33 +33 очень
душно
1010.8 1010.2 +23.5 +34.7
03 16.10 Ю 1 н/о н/о +23.7 +23.0 96 +31 +31 очень
душно
1009.9 1009.3 +23.5 +34.7
06 16.10 ЮЗ 1 н/о н/о +23.0 +22.3 96 +31 +31 очень
душно
1008.5 1007.9 +22.9 +34.7
09 16.10 штиль 0 н/о н/о +22.3 +21.8 97 +30 +30 очень
душно
1009.4 1008.8 +22.2 +34.7 0.2
12 16.10 В 2 н/о н/о +29.5 +25.3 78 +43 +43 опасность
перегрева
1011.2 1010.6 +22.0 +34.7
15 16.10 С 2 н/о н/о +34.2 +24.2 56 +46 +46 опасность
перегрева
1010.7 1010.1 +22.0 +34.7
18 16.10 СВ 3 н/о н/о +25.9 +24.5 92 +36 +36 очень
душно
1008.1 1007.5 +22.0 +34.4 27
21 16.10 СВ 1 н/о н/о +27.2 +22.6 76 +36 +36 очень
душно
1007.7 1007.1 +22.0 +34.4
00 17.10 С 1 н/о н/о +24.9 +23.5 92 +34 +34 очень
душно
1009.8 1009.2 +22.0 +34.4
03 17.10 ЮВ 1 н/о н/о +24.1 +23.4 96 +32 +32 очень
душно
1010.5 1009.9 +22.0 +34.4
06 17.10 ЮВ 1 н/о н/о +23.3 +22.8 97 +32 +32 очень
душно
1008.7 1008.1 +22.0 +34.4
09 17.10 штиль 0 н/о н/о +22.5 +22.0 97 +30 +30 очень
душно
1009.7 1009.1 +22.0 +34.4
12 17.10 ЮВ 3 н/о н/о +29.1 +24.7 77 +41 +41 опасность
перегрева
1012.2 1011.6 +22.5 +34.4
15 17.10 ЮВ 3 н/о н/о +32.5 +23.7 60 +44 +44 опасность
перегрева
1011.1 1010.5 +22.5 +34.4
18 17.10 В 2 н/о н/о +33.2 +22.3 53 +42 +42 опасность
перегрева
1008.2 1007.6 +22.5 +33.8
21 17.10 СВ 2 н/о н/о +28.5 +24.1 77 +40 +40 очень
душно
1007.9 1007.3 +22.5 +33.8
00 18.10 СВ 1 н/о н/о +26.5 +24.7 90 +38 +38 очень
душно
1010.6 1010.0 +22.5 +33.8
03 18.10 В 1 н/о н/о +25.3 +24.1 93 +35 +35 очень
душно
1010.6 1010.0 +22.5 +33.8
06 18.10 В 1 н/о н/о +23.9 +23.2 96 +32 +32 очень
душно
1008.5 1007.9 +22.5 +33.8
09 18.10 ЮВ 1 н/о н/о +23.9 +23.4 97 +32 +32 очень
душно
1009.0 1008.4 +22.5 +33.8

 

Местоположение метеостанции Saint-Laurent-du-Maroni (Французская Гвиана): широта 5.50 долгота -54.03 высота над уровнем моря 9 м.

В архиве по умолчанию представлена погода в Saint-Laurent-du-Maroni за последнюю неделю. Архивные данные за месяц целиком и за предыдущие месяцы, начиная с января 2011 года, Вы можете получить, выбрав интересующий диапазон дат из раскрывающегося списка и нажав кнопку "Ввод!".


*Определитесь, кто Вы:
робот инопланетянин человек

Внимание! Время в таблицах - всемирное. Для получения местного времени необходимо прибавить поправку, которая в Saint-Laurent-du-Maroni равна -3 ч.

Смотрите также архив погоды в соседних городах и на ближайших метеорологических станциях:

Погода в Zanderij (Суринам) (130 км)
Погода в Paramaribo (Суринам) (132 км)
Погода в Stoelmans Island (Суринам) (135 км)
Погода в Cayenne (Французская Гвиана) (199 км)
Погода в Maripasoula (Французская Гвиана) (208 км)
Погода в Oiapoque (Бразилия) (305 км)
Погода в Saint Georges de L`Oyapock (Французская Гвиана) (306 км)
Погода в Nickerie (Суринам) (336 км)
Погода в Kaieteur Falls (Гайана) (371 км)
Погода в New Amsterdam (Гайана) (395 км)

Пояснения к столбцам:

Ветер - указаны скорость ветра в м/с - средняя за 10 мин, порывы в срок и между сроками (в фигурных скобках) и направление, откуда дует ветер: С - северный, СВ - северо-восточный, В - восточный, ЮВ - юго-восточный, Ю - южный, ЮЗ - юго-западный, З - западный, СЗ - северо-западный.
Видимость - горизонтальная дальность видимости в метрах или километрах. При видимости от 1 до 10 км при отсутствии осадков обычно наблюдается дымка, при ухудшении видимости до 1 км и менее - туман. В сухую погоду видимость может ухудшаться дымом, пылью или мглою.
Явления - указаны атмосферные явления, наблюдавшиеся в срок или в последний час перед сроком; фигурными скобками обозначены явления, наблюдавшиеся между сроками (за 1-3 часа до срока); квадратными скобками обозначены град или гололедные отложения с указанием их диаметра в мм.
Облачность - указаны через наклонную черту общая и нижняя облачность в баллах и высота нижней границы облаков в метрах; квадратными скобками обозначены формы облаков: Ci - перистые, Cs - перисто-слоистые, Cc - перисто-кучевые, Ac - высококучевые, As - высокослоистые, Sc - слоисто-кучевые, Ns - слоисто-дождевые, Cu - кучевые, Cb - кучево-дождевые. Подробнее классификацию облаков см. в Атласе облаков (PDF).
T - Температура воздуха - температура, измеренная на высоте 2 м над землей.
Td - Температура точки росы - температура, при понижении до которой содержащийся в воздухе водяной пар достигнет насыщения.
f - Относительная влажность воздуха - влажноcть воздуха, измеренная на высоте 2 м над землей.
Te - Эффективная температура - температура, которую ощущает одетый по сезону человек в тени. Характеристика душности погоды. При расчете учитывается влияние влажности воздуха и скорости ветра на теплоощущения человека.
Tes - Эффективная температура на солнце - температура, которую ощущает человек, с поправкой на солнечный нагрев. Характеристика знойности погоды. Зависит от высоты солнца над горизонтом, облачности и скорости ветра. Ночью, в пасмурную погоду, а также при ветре 12 м/с и более поправка равна нулю.
P - Атмосферное давление - приведенное к уровню моря атмосферное давление.
Po - Атмосферное давление - измеренное на уровне метеостанции атмосферное давление.
Tmin - Минимальная температура - минимум температуры воздуха на высоте 2 м над землей.
Tmax - Максимальная температура - максимум температуры воздуха на высоте 2 м над землей.
R - Количество осадков - Количество выпавших осадков за период времени, мм. При наведении курсора мыши на число - период времени, за который выпало указанное количество осадков.
R24 - Количество осадков - Количество выпавших осадков за 24 часа, мм.
S - Снежный покров - Высота снежного покрова, см. При наведении курсора мыши на число - состояние снежного покрова и степень покрытия местности в баллах.